This demonstration page uses our WeatherBlox Daily Observations layout. Learn more.

Left ArrowRight Arrow

Hourly Observations for August 10, 2019

Temp ( °F °C ) Dew Point ( °F °C ) Humidity (%) Winds ( mph kmh ) Pressure ( in mb ) Visibility ( mi km ) Precip ( " mm )
12:15 am 00:15 Clear 62 16.9 59 15.1 89 89 Calm 29.98 1015 10 16 0.00 0.00
12:35 am 00:35 Clear 62 16.4 60 15.5 94 94 Calm 29.98 1015 10 16 0.00 0.00
12:55 am 00:55 Clear 60 15.8 60 15.7 99 99 Calm 29.98 1015 10 16 0.00 0.00
1:15 am 01:15 Clear 59 14.9 59 14.9 100 100 Calm 29.98 1015 10 16 0.00 0.00
1:35 am 01:35 Clear 60 15.5 59 15.2 98 98 Calm 29.99 1016 10 16 0.00 0.00
1:55 am 01:55 Clear 59 15.1 59 15.1 100 100 Calm 30.00 1016 10 16 0.00 0.00
2:15 am 02:15 Clear 58 14.5 58 14.5 100 100 Calm 30.01 1016 10 16 0.00 0.00
2:35 am 02:35 Clear 57 14.1 57 14.1 100 100 Calm 30.00 1016 10 16 0.00 0.00
2:55 am 02:55 Clear 57 14.1 57 14.1 100 100 Calm 29.99 1015 10 16 0.00 0.00
3:15 am 03:15 Clear 57 14 57 14 100 100 Calm 30.00 1016 10 16 0.00 0.00
3:35 am 03:35 Clear 57 13.7 57 13.7 100 100 Calm 29.99 1015 10 16 0.00 0.00
3:55 am 03:55 Clear 56 13.6 56 13.6 100 100 Calm 30.00 1016 10 16 0.00 0.00
4:15 am 04:15 Clear 56 13.6 56 13.6 100 100 Calm 30.00 1016 10 16 0.00 0.00
4:35 am 04:35 Clear 56 13.1 56 13.1 100 100 Calm 30.00 1016 10 16 0.00 0.00
4:55 am 04:55 Clear 56 13.3 56 13.3 100 100 Calm 30.00 1016 10 16 0.00 0.00
5:15 am 05:15 Clear 56 13.4 56 13.4 100 100 Calm 30.00 1016 10 16 0.00 0.00
5:35 am 05:35 Clear 56 13.2 56 13.2 100 100 Calm 30.00 1016 10 16 0.00 0.00
5:55 am 05:55 Clear 56 13.4 56 13.4 100 100 Calm 30.00 1016 10 16 0.00 0.00
6:15 am 06:15 Clear 56 13.4 56 13.4 100 100 Calm 30.01 1016 10 16 0.00 0.00
6:35 am 06:35 Clear 56 13.3 56 13.3 100 100 Calm 30.01 1016 10 16 0.00 0.00
6:55 am 06:55 Sunny 55 13 55 13 100 100 Calm 30.01 1016 10 16 0.00 0.00
7:15 am 07:15 Sunny 55 12.6 55 12.6 100 100 Calm 30.02 1017 10 16 0.00 0.00
7:35 am 07:35 Sunny 55 13 55 13 100 100 Calm 30.03 1017 10 16 0.00 0.00
7:55 am 07:55 Sunny 57 13.8 57 13.8 100 100 Calm 30.03 1017 10 16 0.00 0.00
8:15 am 08:15 Sunny 58 14.5 58 14.5 100 100 Calm 30.04 1017 10 16 0.00 0.00
8:35 am 08:35 Sunny 60 15.5 59 14.9 96 96 Calm 30.04 1017 10 16 0.00 0.00
8:55 am 08:55 Sunny 62 16.6 61 15.9 96 96 Calm 30.04 1017 10 16 0.00 0.00
9:15 am 09:15 Sunny 65 18.2 60 15.4 84 84 Calm 30.04 1017 10 16 0.00 0.00
9:35 am 09:35 Sunny 67 19.6 58 14.6 73 73 Calm 30.04 1017 10 16 0.00 0.00
9:55 am 09:55 Sunny 69 20.7 57 14.1 66 66 Calm 30.04 1017 10 16 0.00 0.00
10:15 am 10:15 Sunny 69 20.8 57 13.9 65 65 Calm 30.04 1017 10 16 0.00 0.00
10:35 am 10:35 Sunny 71 21.4 55 13 59 59 Calm 30.03 1017 10 16 0.00 0.00
10:55 am 10:55 Sunny 71 21.7 54 12.4 56 56 Calm 30.03 1017 10 16 0.00 0.00
11:15 am 11:15 Sunny 72 22.1 57 14.1 61 61 Calm 30.03 1017 10 16 0.00 0.00
11:35 am 11:35 Sunny 72 22.4 56 13.2 56 56 Calm 30.03 1017 10 16 0.00 0.00
11:55 am 11:55 Sunny 73 22.5 55 12.8 54 54 Calm 30.04 1017 10 16 0.00 0.00
12:15 pm 12:15 Sunny 73 22.8 54 12.3 52 52 Calm 30.03 1017 10 16 0.00 0.00
12:35 pm 12:35 Sunny 74 23.5 56 13.5 54 54 Calm 30.02 1017 10 16 0.00 0.00
12:55 pm 12:55 Sunny 75 23.7 56 13.4 53 53 Calm 30.02 1017 10 16 0.00 0.00
1:15 pm 13:15 Sunny 75 24.1 54 12.2 47 47 Calm 30.01 1016 10 16 0.00 0.00
1:35 pm 13:35 Sunny 76 24.7 56 13.2 49 49 Calm 30.01 1016 10 16 0.00 0.00
1:55 pm 13:55 Sunny 77 24.8 56 13.3 49 49 Calm 29.99 1016 10 16 0.00 0.00
2:15 pm 14:15 Sunny 77 25.1 56 13.6 49 49 NNW 3 6 29.99 1016 10 16 0.00 0.00
2:35 pm 14:35 Sunny 78 25.4 57 13.7 48 48 Calm 29.99 1016 10 16 0.00 0.00
2:55 pm 14:55 Sunny 77 25.2 55 12.6 46 46 Calm 29.99 1016 10 16 0.00 0.00
3:15 pm 15:15 Sunny 78 25.8 57 14 48 48 NE 3 6 29.99 1015 10 16 0.00 0.00
3:35 pm 15:35 Sunny 79 25.9 58 14.7 50 50 NE 8 13 29.98 1015 10 16 0.00 0.00
3:55 pm 15:55 Sunny 79 26.1 56 13.6 46 46 NNW 5 7 29.99 1015 10 16 0.00 0.00
4:15 pm 16:15 Sunny 79 26 55 12.8 44 44 Calm 29.99 1015 10 16 0.00 0.00
4:35 pm 16:35 Sunny 79 26.2 59 14.8 50 50 Calm 29.99 1015 10 16 0.00 0.00
4:55 pm 16:55 Sunny 78 25.8 57 13.8 48 48 NE 6 9 29.98 1015 10 16 0.00 0.00
5:15 pm 17:15 Sunny 79 26 56 13.5 46 46 N 6 9 29.98 1015 10 16 0.00 0.00
5:35 pm 17:35 Sunny 79 26 58 14.5 49 49 N 5 7 29.98 1015 10 16 0.00 0.00
5:55 pm 17:55 Sunny 78 25.7 57 14.1 49 49 N 3 6 29.98 1015 10 16 0.00 0.00
6:15 pm 18:15 Sunny 78 25.8 58 14.7 50 50 N 7 11 29.98 1015 10 16 0.00 0.00
6:35 pm 18:35 Sunny 78 25.5 58 14.4 50 50 NE 6 9 29.97 1015 10 16 0.00 0.00
6:55 pm 18:55 Sunny 77 25.1 59 14.8 53 53 ENE 3 6 29.97 1015 10 16 0.00 0.00
7:15 pm 19:15 Sunny 77 25 60 15.6 56 56 NNE 8 13 29.97 1015 10 16 0.00 0.00
7:35 pm 19:35 Sunny 76 24.5 60 15.6 58 58 NNE 7 11 29.97 1015 10 16 0.00 0.00
7:55 pm 19:55 Sunny 75 23.7 61 16.3 63 63 ENE 3 6 29.97 1015 10 16 0.00 0.00
8:15 pm 20:15 Sunny 74 23.4 61 16.2 64 64 ENE 3 6 29.99 1015 10 16 0.00 0.00
8:35 pm 20:35 Sunny 71 21.8 62 16.5 72 72 ENE 5 7 29.99 1016 10 16 0.00 0.00
8:55 pm 20:55 Clear 70 21.1 60 15.7 71 71 ENE 5 7 29.99 1016 10 16 0.00 0.00
9:15 pm 21:15 Clear 69 20.4 62 16.5 78 78 ENE 5 7 30.01 1016 10 16 0.00 0.00
9:35 pm 21:35 Clear 68 19.9 61 15.9 78 78 E 3 6 30.00 1016 10 16 0.00 0.00
9:55 pm 21:55 Clear 66 18.9 63 17.1 89 89 ENE 3 6 30.01 1016 10 16 0.00 0.00
10:15 pm 22:15 Clear 65 18.2 64 17.7 97 97 Calm 30.01 1016 10 16 0.00 0.00
10:35 pm 22:35 Clear 63 17.3 63 17.3 100 100 Calm 30.03 1017 10 16 0.00 0.00
10:55 pm 22:55 Clear 64 17.5 64 17.5 100 100 Calm 30.02 1017 10 16 0.00 0.00
11:15 pm 23:15 Clear 63 17.2 63 17.2 100 100 Calm 30.03 1017 10 16 0.00 0.00
11:35 pm 23:35 Clear 61 16.2 61 16.2 100 100 Calm 30.03 1017 10 16 0.00 0.00
11:55 pm 23:55 Clear 62 16.5 62 16.5 100 100 Calm 30.04 1017 10 16 0.00 0.00

Powered by AerisWeather